Weather reports worldwide

Advertisment
Ahaus, Germany (10309): temperature & dewpoint: 16.09.2018 23:00:00 - 22.09.2018 23:00:00 (CEST)Ahaus, Germany (10309): temperature 5cm & temperature -5cm: 16.09.2018 23:00:00 - 22.09.2018 23:00:00 (CEST)Ahaus, Germany (10309): temperature -20cm & temperature -100cm: 16.09.2018 23:00:00 - 22.09.2018 23:00:00 (CEST)Ahaus, Germany (10309): wind speed & gusts: 16.09.2018 23:00:00 - 22.09.2018 23:00:00 (CEST)Ahaus, Germany (10309): wind direction: 16.09.2018 23:00:00 - 22.09.2018 23:00:00 (CEST)Ahaus, Germany (10309): reduced air pressure: 16.09.2018 23:00:00 - 22.09.2018 23:00:00 (CEST)Ahaus, Germany (10309): visibility: 16.09.2018 23:00:00 - 22.09.2018 23:00:00 (CEST)Ahaus, Germany (10309): sunshine duration: 16.09.2018 23:00:00 - 22.09.2018 23:00:00 (CEST)Ahaus, Germany (10309): precipitation: 16.09.2018 23:00:00 - 22.09.2018 23:00:00 (CEST)
Date & Time tt [°C] td [°C] tt 5cm [°C] tt -5cm [°C] tt -20cm [°C] tt -100cm [°C] ff [km/h] ff [kn] fx [km/h] fx [kn] dd ppp [hPa] vv [km] sd [min] rr [mm]
22.09.2018 23:00:00 10,5 9,7 10,2 12,8 15,2 17,4 11 6 15 8 SSW 1018,1 12 0 0,4
22.09.2018 22:00:00 10,5 9,8 10,1 12,9 15,3 17,4 9 5 13 7 SSW 1018,5 9 0 0,2
22.09.2018 21:00:00 10,4 9,5 10,0 13,0 15,5 17,4 9 5 18 10 SW 1018,6 12 0 0,2
22.09.2018 20:00:00 10,5 9,2 9,9 13,4 15,6 17,4 13 7 20 11 SW 1018,3 14 0 0,2
22.09.2018 19:00:00 11,0 9,6 10,5 13,8 15,7 17,4 10 5 19 11 SW 1018,1 23 0 0,5
22.09.2018 18:00:00 11,1 9,0 10,4 14,2 15,8 17,4 9 5 28 15 W 1018,5 18 0 0,8
22.09.2018 17:00:00 10,8 8,8 10,2 14,7 15,9 17,4 14 8 42 23 W 1019,0 9 0 2,3
22.09.2018 16:00:00 15,7 7,2 15,5 16,1 15,8 17,4 14 8 46 25 WSW 1018,0 48 0 0,0
22.09.2018 15:00:00 15,8 7,7 16,3 16,3 15,6 17,4 16 9 35 19 WSW 1018,1 39 2 0,0
22.09.2018 14:00:00 15,5 8,2 16,6 16,0 15,5 17,4 20 11 41 22 SW 1018,2 32 0 0,0
22.09.2018 13:00:00 15,2 8,8 15,9 16,3 15,2 17,4 23 12 36 20 SW 1018,5 44 20 0,0
22.09.2018 12:00:00 14,1 9,2 15,3 15,4 15,0 17,4 21 11 34 19 SW 1018,7 27 3 0,0
22.09.2018 11:00:00 13,9 9,6 15,3 14,4 14,9 17,4 18 10 34 18 SW 1019,1 28 51 0,0
22.09.2018 10:00:00 12,8 8,8 14,2 12,7 14,9 17,4 17 9 29 16 SW 1019,0 38 35 0,0
22.09.2018 09:00:00 10,9 8,4 10,6 11,6 15,0 17,4 16 8 22 12 SW 1018,6 35 0 0,0
22.09.2018 08:00:00 10,3 7,8 9,4 11,3 15,2 17,4 14 8 21 11 SSW 1018,5 41 2 0,0
22.09.2018 07:00:00 10,6 7,8 9,4 11,4 15,4 17,4 13 7 24 13 SW 1017,9 37 0 0,0
22.09.2018 06:00:00 10,9 8,0 9,7 11,6 15,6 17,4 13 7 26 14 SW 1017,5 38 0 0,0
22.09.2018 05:00:00 10,7 8,1 9,9 11,7 15,9 17,4 15 8 28 15 SW 1017,0 47 0 0,0
22.09.2018 04:00:00 10,9 8,0 9,6 12,0 16,1 17,4 15 8 27 15 SW 1016,6 41 0 0,0
22.09.2018 03:00:00 11,3 8,2 10,0 12,3 16,3 17,4 17 9 37 20 SW 1015,8 47 0 0,0
22.09.2018 02:00:00 11,2 8,5 10,1 12,6 16,6 17,4 20 11 44 24 SW 1015,1 46 0 0,0
22.09.2018 01:00:00 11,1 8,6 9,6 13,0 16,9 17,4 16 9 32 18 SW 1014,2 41 0 0,1
22.09.2018 00:00:00 10,7 8,2 9,6 13,4 17,2 17,4 19 10 36 19 SW 1013,4 48 0 0,1
21.09.2018 23:00:00 10,8 8,4 9,5 13,8 17,4 17,4 16 9 31 17 SW 1012,9 42 0 0,8
21.09.2018 22:00:00 10,2 8,5 9,5 14,3 17,7 17,4 8 5 36 19 W 1012,7 12 0 3,2
21.09.2018 21:00:00 11,4 6,7 9,7 14,9 18,0 17,4 9 5 83 45 SW 1012,1 8 0 0,1
21.09.2018 20:00:00 14,6 4,1 12,6 15,6 18,2 17,4 15 8 44 24 WSW 1010,7 32 0 0,0
21.09.2018 19:00:00 15,1 3,6 14,1 16,7 18,3 17,4 24 13 54 29 WSW 1009,7 21 54 0,0
21.09.2018 18:00:00 15,6 4,3 16,3 17,7 18,4 17,4 18 10 53 29 W 1009,4 46 49 0,0
21.09.2018 17:00:00 15,6 4,9 15,5 18,6 18,4 17,4 23 12 49 27 W 1009,0 62 46 0,0
21.09.2018 16:00:00 16,6 6,0 19,0 17,7 18,5 17,4 29 16 53 29 W 1008,1 14 26 0,0
21.09.2018 15:00:00 15,8 6,6 16,2 17,9 18,5 17,4 19 11 48 26 W 1007,4 44 1 0,0
21.09.2018 14:00:00 15,9 8,9 16,6 18,1 18,6 17,4 32 17 48 26 W 1006,5 46 2 0,0
21.09.2018 13:00:00 17,0 11,3 18,7 18,1 18,6 17,4 19 11 45 24 WSW 1005,2 35 11 0,0
21.09.2018 12:00:00 15,4 12,7 14,9 17,4 18,8 17,4 17 9 36 19 WSW 1004,9 16 0 0,0
21.09.2018 11:00:00 14,7 12,3 13,7 18,0 18,9 17,4 21 11 54 29 WSW 1003,8 29 0 3,2
21.09.2018 10:00:00 19,6 13,1 18,8 18,3 18,9 17,4 28 15 60 32 SW 1002,0 48 0 0,1
21.09.2018 09:00:00 20,3 11,7 19,6 18,7 19,0 17,3 33 18 56 30 SW 1001,7 32 0 0,1
21.09.2018 08:00:00 20,7 11,1 19,9 18,6 19,0 17,3 31 17 51 28 SSW 1001,5 42 0 0,0
21.09.2018 07:00:00 20,8 11,9 19,8 18,6 19,1 17,3 26 14 42 23 SSW 1002,2 42 0 0,0
21.09.2018 06:00:00 21,0 12,0 19,8 18,5 19,2 17,3 23 12 43 23 S 1002,8 41 0 0,0
21.09.2018 05:00:00 20,6 12,0 19,1 18,5 19,3 17,3 19 10 35 19 S 1004,2 40 0 0,0
21.09.2018 04:00:00 20,8 11,9 19,4 18,6 19,4 17,3 23 12 35 19 SSW 1005,7 42 0 0,0
21.09.2018 03:00:00 20,8 11,7 19,2 18,7 19,5 17,3 19 10 30 16 S 1006,6 42 0 0,0
21.09.2018 02:00:00 20,5 11,1 19,0 18,8 19,7 17,3 16 9 28 15 S 1007,6 43 0 0,0
21.09.2018 01:00:00 20,7 10,9 19,1 18,9 19,9 17,3 14 8 30 16 S 1008,3 55 0 0,0
21.09.2018 00:00:00 20,3 11,0 18,6 19,0 20,1 17,3 17 9 25 14 S 1009,4 44 0 0,0
20.09.2018 23:00:00 19,6 12,0 17,5 19,3 20,3 17,3 11 6 18 10 S 1010,3 46 0 0,0
20.09.2018 22:00:00 18,7 12,1 16,0 20,0 20,6 17,3 10 5 15 8 SSE 1010,9 38 0 0,0
20.09.2018 21:00:00 19,4 12,0 16,0 20,9 20,7 17,3 8 4 10 6 SSE 1011,4 43 0 0,0
20.09.2018 20:00:00 22,1 11,9 19,1 22,2 20,8 17,3 8 4 20 11 S 1011,7 47 0 0,0
20.09.2018 19:00:00 23,5 11,9 22,5 23,5 20,7 17,3 14 7 36 19 SSW 1012,2 46 43 0,0
20.09.2018 18:00:00 24,7 11,9 25,9 24,6 20,5 17,3 20 11 41 22 SSW 1013,0 18 60 0,0
20.09.2018 17:00:00 24,8 11,7 27,0 25,1 20,2 17,3 25 14 43 23 SSW 1013,7 14 60 0,0
20.09.2018 16:00:00 24,4 11,5 27,2 25,0 19,9 17,3 23 13 41 22 SW 1014,4 52 56 0,0
20.09.2018 15:00:00 24,7 12,4 28,3 24,4 19,5 17,3 19 10 42 23 SSW 1015,0 28 57 0,0
20.09.2018 14:00:00 24,2 12,5 27,4 23,7 19,1 17,2 21 11 48 26 SW 1015,5 27 38 0,0
20.09.2018 13:00:00 23,2 12,4 25,3 23,0 18,8 17,2 29 16 51 28 SW 1015,7 20 46 0,0
20.09.2018 12:00:00 22,6 13,4 25,5 21,5 18,5 17,2 26 14 36 19 SSW 1016,1 34 59 0,0
20.09.2018 11:00:00 20,7 13,1 23,7 19,7 18,4 17,2 16 9 26 14 SSW 1016,5 21 46 0,0
20.09.2018 10:00:00 18,5 12,8 19,3 18,5 18,3 17,2 14 8 23 12 SSW 1016,8 25 25 0,0
20.09.2018 09:00:00 17,8 12,6 18,7 17,5 18,4 17,2 12 6 18 10 SSW 1016,8 29 27 0,0
20.09.2018 08:00:00 16,7 12,3 16,1 17,2 18,5 17,2 9 5 15 8 S 1017,0 27 0 0,0
20.09.2018 07:00:00 17,0 12,3 16,2 17,2 18,7 17,2 9 5 20 11 S 1016,8 27 0 0,0
20.09.2018 06:00:00 16,6 12,4 15,5 17,2 18,9 17,2 9 5 19 10 SSW 1017,0 28 0 0,0
20.09.2018 05:00:00 17,7 12,4 16,2 17,4 19,1 17,2 13 7 20 11 SW 1016,8 29 0 0,0
20.09.2018 04:00:00 16,2 12,3 12,9 17,8 19,3 17,2 6 3 15 8 S 1016,9 26 0 0,0
20.09.2018 03:00:00 17,9 12,5 16,0 18,2 19,4 17,2 11 6 18 10 SSW 1016,8 33 0 0,0
20.09.2018 02:00:00 18,7 12,6 16,9 18,6 19,6 17,2 11 6 18 10 SSW 1017,1 32 0 0,0
20.09.2018 01:00:00 19,4 12,5 17,7 19,0 19,8 17,2 11 6 22 12 SW 1017,5 37 0 0,0
20.09.2018 00:00:00 20,0 12,4 18,5 19,3 20,0 17,2 13 7 27 15 SW 1017,7 39 0 0,0
19.09.2018 23:00:00 20,8 12,3 19,1 19,8 20,2 17,2 12 7 24 13 WSW 1017,4 36 0 0,0
19.09.2018 22:00:00 20,9 12,0 19,2 20,4 20,4 17,2 12 6 29 16 W 1017,1 29 0 0,0
19.09.2018 21:00:00 21,5 11,9 19,8 21,2 20,6 17,2 10 5 22 12 WSW 1016,9 22 0 0,0
19.09.2018 20:00:00 22,3 11,8 20,4 22,3 20,6 17,2 10 5 28 15 W 1016,4 31 6 0,0
19.09.2018 19:00:00 24,3 10,9 23,4 23,8 20,5 17,1 16 9 36 19 WSW 1015,7 32 54 0,0
19.09.2018 18:00:00 25,9 12,8 26,9 24,9 20,3 17,1 18 10 43 23 WSW 1015,3 28 59 0,0
19.09.2018 17:00:00 26,1 13,3 28,0 25,3 19,9 17,1 22 12 50 27 SW 1015,0 17 59 0,0
19.09.2018 16:00:00 25,9 14,0 28,3 25,3 19,5 17,1 24 13 42 23 SW 1015,1 14 60 0,0
19.09.2018 15:00:00 25,5 13,8 28,5 24,6 19,1 17,1 26 14 45 24 SW 1015,6 10 58 0,0
19.09.2018 14:00:00 24,7 14,4 27,4 23,3 18,7 17,1 25 13 45 24 SW 1015,9 23 23 0,0
19.09.2018 13:00:00 24,8 15,0 28,4 22,8 18,3 17,1 22 12 47 25 SW 1015,7 26 33 0,0
19.09.2018 12:00:00 23,9 14,7 27,8 21,5 17,9 17,1 24 13 42 23 S 1015,9 13 60 0,0
19.09.2018 11:00:00 22,2 14,6 25,1 19,4 17,7 17,1 21 11 35 19 S 1016,4 16 60 0,0
19.09.2018 10:00:00 19,5 13,3 21,6 17,4 17,7 17,1 15 8 23 12 SSE 1016,5 19 45 0,0
19.09.2018 09:00:00 17,1 12,8 17,6 16,2 17,9 17,1 13 7 21 12 SSE 1016,5 24 58 0,0
19.09.2018 08:00:00 14,5 12,1 13,5 15,7 18,1 17,1 13 7 17 9 SSE 1016,8 24 1 0,0
19.09.2018 07:00:00 13,0 11,5 9,3 16,0 18,3 17,1 5 3 8 4 SSE 1017,1 24 0 0,0
19.09.2018 06:00:00 13,9 11,7 10,5 16,4 18,5 17,1 6 3 10 5 SSE 1016,9 23 0 0,0
19.09.2018 05:00:00 15,4 12,3 11,7 16,9 18,7 17,1 5 3 13 7 S 1016,9 29 0 0,0
19.09.2018 04:00:00 15,7 12,3 13,9 17,3 19,0 17,1 10 5 15 8 SSW 1016,9 34 0 0,0
19.09.2018 03:00:00 16,6 12,6 15,1 17,7 19,2 17,1 10 5 18 10 SW 1016,6 36 0 0,0
19.09.2018 02:00:00 16,7 12,7 15,3 18,0 19,4 17,1 9 5 14 8 SW 1016,4 30 0 0,0
19.09.2018 01:00:00 17,1 12,5 14,7 18,5 19,7 17,1 8 4 13 7 SW 1016,0 30 0 0,0
19.09.2018 00:00:00 18,6 12,5 16,5 19,1 19,9 17,1 8 4 17 9 WSW 1015,6 37 0 0,0
18.09.2018 23:00:00 19,4 12,6 17,5 19,7 20,2 17,1 9 5 19 10 WSW 1015,4 33 0 0,0
18.09.2018 22:00:00 20,4 13,1 18,5 20,6 20,4 17,1 9 5 23 12 W 1015,1 32 0 0,0
18.09.2018 21:00:00 21,9 12,6 19,6 21,6 20,5 17,1 9 5 21 11 W 1014,3 33 0 0,0
18.09.2018 20:00:00 23,5 11,5 21,0 23,0 20,5 17,1 10 5 35 19 W 1013,1 36 12 0,0
18.09.2018 19:00:00 26,0 10,3 25,2 24,6 20,4 17,1 14 8 33 18 W 1012,2 46 60 0,0
18.09.2018 18:00:00 28,2 11,2 29,1 25,8 20,1 17,1 16 9 38 20 WSW 1011,3 55 60 0,0
18.09.2018 17:00:00 29,3 9,4 31,0 26,4 19,6 17,1 26 14 48 26 SW 1010,8 18 60 0,0
18.09.2018 16:00:00 29,5 10,0 31,7 26,5 19,1 17,1 24 13 39 21 SW 1010,5 16 60 0,0
18.09.2018 15:00:00 29,6 11,1 32,4 26,0 18,5 17,1 26 14 46 25 SW 1010,6 16 60 0,0
18.09.2018 14:00:00 29,2 12,9 31,8 25,0 17,9 17,1 27 14 41 22 SW 1010,8 9 60 0,0
18.09.2018 13:00:00 28,2 13,1 31,4 23,5 17,3 17,1 23 13 38 21 SW 1010,9 14 60 0,0
18.09.2018 12:00:00 26,9 11,6 30,2 21,5 16,8 17,1 21 11 39 21 SSW 1011,1 31 60 0,0
18.09.2018 11:00:00 25,3 10,7 27,9 19,2 16,5 17,1 22 12 31 17 S 1011,3 22 60 0,0
18.09.2018 10:00:00 22,3 11,0 24,6 16,8 16,4 17,1 11 6 19 11 S 1011,3 36 60 0,0
18.09.2018 09:00:00 19,1 10,0 20,1 15,0 16,4 17,1 10 5 18 10 SSE 1011,7 34 60 0,0
18.09.2018 08:00:00 17,1 9,5 15,1 14,3 16,6 17,1 11 6 17 9 SSE 1011,8 37 10 0,0
18.09.2018 07:00:00 16,3 9,0 13,4 14,2 16,8 17,1 11 6 17 9 SSE 1011,7 37 0 0,0
18.09.2018 06:00:00 15,3 8,8 10,9 14,3 17,0 17,1 9 5 14 7 SSE 1012,2 33 0 0,0
18.09.2018 05:00:00 15,3 8,8 11,3 14,4 17,2 17,1 10 5 15 8 SSE 1012,7 34 0 0,0
18.09.2018 04:00:00 15,5 8,7 12,0 14,6 17,4 17,1 11 6 15 8 SSE 1013,1 33 0 0,0
18.09.2018 03:00:00 15,5 8,1 10,4 14,8 17,7 17,1 9 5 14 7 SSE 1013,5 36 0 0,0
18.09.2018 02:00:00 13,3 8,4 8,3 15,1 18,0 17,1 8 5 11 6 SSE 1014,0 24 0 0,0
18.09.2018 01:00:00 10,7 9,1 6,5 15,7 18,3 17,1 3 2 19 10 ESE 1014,6 21 0 0,0
18.09.2018 00:00:00 11,0 8,5 7,4 16,4 18,6 17,1 0 0 19 10 N 1015,0 29 0 0,0
17.09.2018 23:00:00 12,1 9,5 8,4 17,2 19,0 17,1 2 1 11 6 E 1015,5 33 0 0,0
17.09.2018 22:00:00 13,4 9,8 9,0 18,1 19,2 17,1 2 1 19 10 E 1015,7 34 0 0,0
17.09.2018 21:00:00 15,1 10,0 10,3 19,3 19,5 17,1 2 1 4 2 E 1016,0 43 0 0,0
17.09.2018 20:00:00 18,0 9,9 13,2 20,9 19,5 17,1 3 2 7 4 ESE 1016,0 16 0 0,0
17.09.2018 19:00:00 23,2 7,1 20,6 22,7 19,4 17,1 5 3 14 8 S 1016,2 54 60 0,0
17.09.2018 18:00:00 24,3 7,8 25,2 24,1 19,1 17,1 10 6 18 10 S 1016,5 48 60 0,0
17.09.2018 17:00:00 24,6 6,9 26,6 25,2 18,7 17,1 11 6 22 12 SSW 1017,1 54 60 0,0
17.09.2018 16:00:00 24,8 7,5 29,2 24,7 18,2 17,1 10 5 22 12 SSW 1017,7 37 60 0,0
17.09.2018 15:00:00 24,0 8,9 27,9 24,2 17,6 17,2 9 5 26 14 SW 1018,2 41 60 0,0
17.09.2018 14:00:00 23,1 8,5 27,0 23,2 17,0 17,2 15 8 23 12 SW 1018,8 33 60 0,0
17.09.2018 13:00:00 22,5 9,6 26,2 21,8 16,4 17,2 13 7 22 12 SW 1019,2 44 60 0,0
17.09.2018 12:00:00 21,3 10,8 25,2 19,5 16,0 17,2 13 7 21 11 SSW 1019,6 33 60 0,0
17.09.2018 11:00:00 18,8 11,1 21,7 17,0 15,8 17,2 13 7 18 10 SSW 1019,7 30 60 0,0
17.09.2018 10:00:00 16,8 10,2 18,5 15,2 15,7 17,2 10 5 17 9 S 1019,8 23 60 0,0
17.09.2018 09:00:00 14,1 9,9 15,3 13,2 15,9 17,2 6 3 9 5 S 1019,8 18 37 0,0
17.09.2018 08:00:00 9,6 8,4 7,3 12,8 16,1 17,2 5 3 7 4 S 1019,8 10 0 0,0
17.09.2018 07:00:00 9,0 7,8 6,0 13,0 16,3 17,2 4 2 7 4 S 1019,4 11 0 0,0
17.09.2018 06:00:00 9,0 8,0 7,2 13,2 16,6 17,2 6 3 7 4 SSE 1019,4 8 0 0,0
17.09.2018 05:00:00 9,2 8,1 6,9 13,6 16,8 17,2 4 2 7 4 SSE 1019,4 14 0 0,0
17.09.2018 04:00:00 10,0 8,2 6,0 13,9 17,1 17,2 4 2 9 5 SSE 1019,1 18 0 0,0
17.09.2018 03:00:00 9,4 8,4 6,8 14,3 17,4 17,2 4 2 5 3 SSE 1019,4 17 0 0,0
17.09.2018 02:00:00 10,1 9,1 7,2 14,9 17,7 17,2 2 1 19 10 S 1019,7 21 0 0,0
17.09.2018 01:00:00 10,2 8,7 7,3 15,5 18,0 17,2 4 2 5 3 SE 1019,7 29 0 0,0
17.09.2018 00:00:00 11,4 9,6 7,6 16,2 18,3 17,2 3 2 19 10 SE 1019,9 34 0 0,0
16.09.2018 23:00:00 12,3 9,7 8,5 17,0 18,5 17,2 4 2 19 10 ESE 1020,2 34 0 0,0

tt = temperature
td = dewpoint
tt 5cm = temperature 5cm
tt -5cm = temperature -5cm
tt -20cm = temperature -20cm
tt -100cm = temperature -100cm
ff = wind speed
fx = gusts
dd = wind direction
ppp = reduced air pressure
vv = visibility
sd = sunshine duration
rr = precipitation

Next stations